STARLINK-5943 (56016 NORAD) Tracking and Keplerian Element Data

This shows tracking and keplerian element data for the satellite.

Feedback or suggestion? Click here.




ElementValue
Catalog56016
NameSTARLINK-5943
Epoch Orbit717
Epoch Day127.00001157
Epoch Year2023
RAAN293.1909
Inclination42.9997
Eccentricity0.0001444
Argument of Perigee277.3264
Mean Anonmoly306.4748
Mean Motion15.54958874
Decay Rate-0.0092556
L11 56016U 23042AG 23127.00001157 -.00925560 00000+0 -14853-1 0 9998
L22 56016 42.9997 293.1909 0001444 277.3264 306.4748 15.54958874 7170



Live tracking and technical data element details for STARLINK-5943 (NORAD 56016). STARLINK-5943 can be tracked NOW for your location showing map with azimuth and elevation plus other details from your city location.







IsCatalogInMostPopularTable: catalog: 56016, numindb: 2
Update: records affected: 1



GetName: 56016 STARLINK-5943

Hit Count: updated at: Sat, 03 Jun 2023 19:04:49 GMT